This demonstration page uses our WeatherBlox Daily Observations layout. Learn more.

Hourly Observations for October 15, 2019

Temp ( °F °C ) Dew Point ( °F °C ) Humidity (%) Winds ( mph kmh ) Pressure ( in mb ) Visibility ( mi km ) Precip ( " mm )
12:15 am 00:15 Clear 51 10.7 45 7.3 80 80 Calm 29.83 1010 10 16.09344 0 0
12:35 am 00:35 Clear 50 9.8 44 6.7 81 81 NNW 13 20 29.85 1011 10 16.09344 0 0
12:55 am 00:55 Clear 53 11.9 38 3.4 56 56 NNW 10 17 29.85 1011 10 16.09344 0 0
1:15 am 01:15 Clear 51 10.8 37 2.7 58 58 NNW 9 15 29.88 1012 10 16.09344 0 0
1:35 am 01:35 Clear 50 10.1 37 2.5 60 60 NNW 7 11 29.88 1012 10 16.09344 0 0
1:55 am 01:55 Clear 50 10 36 2.1 58 58 NNW 8 13 29.88 1012 10 16.09344 0 0
2:15 am 02:15 Clear 50 10 36 2 58 58 NNW 10 17 29.91 1013 10 16.09344 0 0
2:35 am 02:35 Clear 50 10 35 1.7 57 57 NNW 9 15 29.91 1013 10 16.09344 0 0
2:55 am 02:55 Clear 49 9.7 35 1.6 57 57 NNW 12 19 29.91 1013 10 16.09344 0 0
3:15 am 03:15 Clear 49 9.5 35 1.5 58 58 NNW 13 20 29.94 1014 10 16.09344 0 0
3:35 am 03:35 Clear 49 9.2 35 1.6 59 59 NNW 13 20 29.94 1014 10 16.09344 0 0
3:55 am 03:55 Clear 48 9.1 35 1.8 61 61 NNW 14 22 29.94 1014 10 16.09344 0 0
4:15 am 04:15 Clear 48 9.1 36 2 61 61 NNW 12 19 29.97 1015 10 16.09344 0 0
4:35 am 04:35 Clear 48 8.9 36 2 62 62 NNW 12 19 29.97 1015 10 16.09344 0 0
4:55 am 04:55 Clear 48 9 36 2 62 62 N 13 20 29.97 1015 10 16.09344 0 0
5:15 am 05:15 Clear 48 8.9 36 2.1 63 63 N 18 30 30.03 1017 10 16.09344 0 0
5:35 am 05:35 Clear 48 8.7 36 2.1 64 64 N 15 24 30.03 1017 10 16.09344 0 0
5:55 am 05:55 Clear 47 8.5 36 2.1 64 64 N 16 26 30.06 1018 10 16.09344 0 0
6:15 am 06:15 Clear 46 8 36 2 66 66 N 10 17 30.06 1018 10 16.09344 0 0
6:35 am 06:35 Clear 46 7.8 36 2 67 67 N 14 22 30.09 1019 10 16.09344 0 0
6:55 am 06:55 Clear 46 7.5 36 2 68 68 N 15 24 30.09 1019 10 16.09344 0 0
7:15 am 07:15 Clear 45 7.3 35 1.8 68 68 N 14 22 30.09 1019 10 16.09344 0 0
7:35 am 07:35 Clear 45 7.1 36 2 70 70 N 17 28 30.09 1019 10 16.09344 0 0
7:55 am 07:55 Sunny 44 6.9 36 2 71 71 N 15 24 30.12 1020 10 16.09344 0 0
8:15 am 08:15 Sunny 44 6.6 36 2 73 73 N 13 20 30.15 1021 10 16.09344 0 0
8:35 am 08:35 Sunny 44 6.6 36 2.2 74 74 N 14 22 30.15 1021 10 16.09344 0 0
8:55 am 08:55 Sunny 45 7 36 2.2 72 72 N 16 26 30.12 1020 10 16.09344 0 0
9:15 am 09:15 Sunny 45 7.2 35 1.6 68 68 N 21 33 30.15 1021 10 16.09344 0 0
9:35 am 09:35 Sunny 46 7.8 34 1.2 63 63 N 15 24 30.15 1021 10 16.09344 0 0
9:55 am 09:55 Sunny 47 8.6 34 1 59 59 N 16 26 30.15 1021 10 16.09344 0 0
10:15 am 10:15 Sunny 49 9.2 33 0.5 55 55 N 18 30 30.15 1021 10 16.09344 0 0
10:35 am 10:35 Sunny 50 9.9 33 0.4 52 52 N 21 33 30.15 1021 10 16.09344 0 0
10:55 am 10:55 Sunny 52 11 33 0.6 49 49 N 18 30 30.12 1020 10 16.09344 0 0
11:15 am 11:15 Sunny 53 11.4 32 0.2 46 46 N 17 28 30.12 1020 10 16.09344 0 0
11:35 am 11:35 Sunny 53 11.7 32 -0.1 44 44 N 18 30 30.12 1020 10 16.09344 0 0
11:55 am 11:55 Sunny 54 12.1 32 -0.1 43 43 NNW 18 30 30.12 1020 10 16.09344 0 0
12:15 pm 12:15 Sunny 55 12.6 31 -0.7 40 40 NNW 23 37 30.12 1020 10 16.09344 0 0
12:35 pm 12:35 Sunny 55 13 30 -1 38 38 N 23 37 30.12 1020 10 16.09344 0 0
12:55 pm 12:55 Sunny 56 13.5 31 -0.7 38 38 N 21 33 30.12 1020 10 16.09344 0 0
1:15 pm 13:15 Sunny 57 13.9 31 -0.5 37 37 N 15 24 30.09 1019 10 16.09344 0 0
1:35 pm 13:35 Sunny 58 14.4 31 -0.4 36 36 NNW 15 24 30.09 1019 10 16.09344 0 0
1:55 pm 13:55 Sunny 58 14.4 30 -1 35 35 NNW 18 30 30.09 1019 10 16.09344 0 0
2:15 pm 14:15 Sunny 59 14.9 31 -0.8 34 34 N 14 22 30.09 1019 10 16.09344 0 0
2:35 pm 14:35 Sunny 59 14.9 30 -1.2 33 33 N 17 28 30.09 1019 10 16.09344 0 0
2:55 pm 14:55 Sunny 59 15 30 -1.2 33 33 NNW 17 28 30.09 1019 10 16.09344 0 0
3:15 pm 15:15 Sunny 60 15.5 29 -1.4 32 32 NNW 17 28 30.09 1019 10 16.09344 0 0
3:35 pm 15:35 Sunny 60 15.6 28 -2 30 30 NNW 21 33 30.09 1019 10 16.09344 0 0
3:55 pm 15:55 Sunny 59 15 28 -2 31 31 NNW 21 33 30.09 1019 10 16.09344 0 0
4:15 pm 16:15 Sunny 60 15.3 29 -1.5 32 32 NW 20 31 30.09 1019 10 16.09344 0 0
4:35 pm 16:35 Sunny 59 15.1 29 -1.7 32 32 NNW 17 28 30.09 1019 10 16.09344 0 0
4:55 pm 16:55 Sunny 59 14.9 29 -1.5 33 33 NNW 13 20 30.09 1019 10 16.09344 0 0
5:15 pm 17:15 Sunny 58 14.5 28 -2.3 32 32 N 21 33 30.09 1019 10 16.09344 0 0
5:35 pm 17:35 Sunny 58 14.3 28 -2.3 32 32 NNW 17 28 30.09 1019 10 16.09344 0 0
5:55 pm 17:55 Sunny 57 13.9 28 -2.4 33 33 N 17 28 30.09 1019 10 16.09344 0 0
6:15 pm 18:15 Sunny 55 13 28 -2 36 36 N 14 22 30.12 1020 10 16.09344 0 0
6:35 pm 18:35 Sunny 54 12 28 -2 38 38 N 12 19 30.12 1020 10 16.09344 0 0
6:55 pm 18:55 Sunny 52 11 28 -2 41 41 N 12 19 30.12 1020 10 16.09344 0 0
7:15 pm 19:15 Clear 51 10.3 28 -2 43 43 N 9 15 30.18 1022 10 16.09344 0 0
7:35 pm 19:35 Clear 49 9.3 29 -1.5 47 47 N 9 15 30.18 1022 10 16.09344 0 0
7:55 pm 19:55 Clear 47 8.5 30 -1.1 51 51 N 10 17 30.21 1023 10 16.09344 0 0
8:15 pm 20:15 Clear 46 7.5 30 -1 55 55 N 9 15 30.24 1024 10 16.09344 0 0
8:35 pm 20:35 Clear 44 6.9 31 -0.8 58 58 N 8 13 30.24 1024 10 16.09344 0 0
8:55 pm 20:55 Clear 44 6.5 31 -0.8 60 60 N 9 15 30.24 1024 10 16.09344 0 0
9:15 pm 21:15 Clear 42 5.7 30 -1 62 62 N 7 11 30.27 1025 10 16.09344 0 0
9:35 pm 21:35 Clear 41 5.1 30 -1 65 65 N 8 13 30.27 1025 10 16.09344 0 0
9:55 pm 21:55 Clear 40 4.5 30 -1.1 67 67 N 7 11 30.3 1026 10 16.09344 0 0
10:15 pm 22:15 Clear 39 4.1 30 -1 70 70 N 6 9 30.3 1026 10 16.09344 0 0
10:35 pm 22:35 Clear 38 3.2 30 -1.3 73 73 NNW 5 7 30.3 1026 10 16.09344 0 0
11:15 pm 23:15 Clear 35 1.8 29 -1.6 78 78 NNW 6 9 30.36 1028 10 16.09344 0 0
11:55 pm 23:55 Clear 35 1.4 29 -1.6 81 81 NW 6 9 30.36 1028 10 16.09344 0 0

Powered by AerisWeather